Flag for U.S.A. Weather past 2 weeks in Marengo, Indiana, U.S.A.

Now
88 °F

Passing clouds.


Feels Like: 93 °F
Forecast: 71 / 81 °F
Wind: 20 mph from Southwest

Location: Bowling Green-Warren County Regional Airport

Current Time: Jul 7, 2015 at 2:14:38 PM

Latest Report: Jul 7, 2015 at 1:53 PM


Visibility: 10 mi

Pressure: 30.01 "Hg

Humidity: 55%

Dew point: 70 °F

Location of MarengoLocation

Historic Weather in Marengo — Graph

°F

Marengo temperature yesterday

Maximum temperature yesterday: 87 °F (at 3:53 PM)
Minimum temperature yesterday: 67 °F (at 3:55 AM)
Average temperature yesterday: 78 °F

Past Weeks' High & Low Weather Summary

 TemperatureHumidityPressure
High95 °F (Jun 25, 4:53 PM)93% (Jun 28, 6:53 AM)30.14 "Hg (Jun 28, 6:53 AM)
Low58 °F (Jun 28, 6:53 AM)35% (Jun 28, 2:53 PM)29.79 "Hg (Jun 29, 4:53 PM)
Average77 °F74%29.96 "Hg
* Reported Jun 22 12:53 PM — Jul 7 12:53 PM, Marengo, Weather by CustomWeather, © 2015

Note: Actual official high and low records may vary slightly from our data, if they occured in-between our weather recording intervals... More about our weather records

Advertising

Marengo weather history for previous 24 hours

 ConditionsComfort  
Time TempWeatherWind HumidityBarometerVisibility
12:53 PM
Tue, Jul 7
86 °FScattered clouds.17 mph65%30.02 "Hg10 mi
11:53 AM83 °FPassing clouds.15 mph70%30.02 "Hg10 mi
10:53 AM80 °FPassing clouds.8 mph76%30.03 "Hg10 mi
9:53 AM78 °FPartly sunny.7 mph79%30.05 "Hg10 mi
8:53 AM76 °FLight rain. Mostly cloudy.5 mph85%30.04 "Hg10 mi
7:53 AM76 °FBroken clouds.10 mph85%30.03 "Hg10 mi
6:53 AM75 °FScattered clouds.8 mph88%30.02 "Hg9 mi
5:53 AM75 °FPassing clouds.9 mph88%30.01 "Hg10 mi
4:53 AM76 °FPassing clouds.9 mph85%30.01 "Hg10 mi
3:53 AM76 °FClear.8 mph85%30.02 "Hg10 mi
2:53 AM77 °FClear.9 mph82%30.02 "Hg10 mi
1:53 AM77 °FClear.7 mph82%30.03 "Hg10 mi
12:53 AM78 °FClear.8 mph79%30.02 "Hg10 mi
11:53 PM
Mon, Jul 6
78 °FPassing clouds.6 mph79%30.03 "Hg10 mi
10:53 PM79 °FPassing clouds.5 mph77%30.03 "Hg10 mi
9:53 PM80 °FClear.8 mph74%30.01 "Hg10 mi
8:53 PM82 °FSunny.8 mph67%29.99 "Hg10 mi
7:53 PM84 °FSunny.10 mph63%29.99 "Hg10 mi
6:53 PM86 °FPassing clouds.12 mph57%30.01 "Hg10 mi
5:53 PM86 °FScattered clouds.12 mph57%30.03 "Hg10 mi
4:53 PM87 °FPassing clouds.9 mph53%30.03 "Hg10 mi
3:53 PM87 °FScattered clouds.9 mph57%30.06 "Hg10 mi
2:53 PM86 °FPassing clouds.9 mph57%30.07 "Hg10 mi
Weather by CustomWeather, © 2015

See weather overviewHow to use our weather pages